Regional Weather Roundup
Issued by NWS

Home | Current Version | Previous Version | Graphics & Text | Print | Product List | Glossary On
Versions: 1 2 3 4 5 6 7 8 9 10 11 12 13 14 15 16 17 18 19 20 21 22 23 24 25 26 27 28 29 30 31 32 33 34 35 36 37 38 39 40 41 42 43 44 45 46 47 48 49 50
000
ASUS43 KLSX 071057
RWRMO

WEATHER SUMMARY FOR MISSOURI
NATIONAL WEATHER SERVICE SPRINGFIELD MO
500 AM CST WED DEC 07 2016

NOTE: "FAIR" INDICATES FEW OR NO CLOUDS BELOW 12,000 FEET WITH NO
       SIGNIFICANT WEATHER AND/OR OBSTRUCTIONS TO VISIBILITY.
       CURRENT SKY AND/OR WEATHER CONDITIONS ARE NOT AVAILABLE FOR
       CHILLICOTHE AND FARMINGTON.

MOZ001>031-035>038-043-044-053-054-071200-
...NORTHERN AND WESTERN MISSOURI...

CITY           SKY/WX    TMP DP  RH WIND       PRES   REMARKS
KANSAS CTY INT CLOUDY    27  14  58 N5        30.18S WCI  22
LEE`S SUMMIT   CLOUDY    31  14  49 N13       30.16F WCI  21
ST JOSEPH      CLOUDY    25  15  66 N6        30.20S WCI  18
CHILLICOTHE      N/A     26  14  60 CALM      30.21R

$$
MOZ066>068-077>081-088>096-101>105-071200-
...SOUTHWEST MISSOURI...

CITY           SKY/WX    TMP DP  RH WIND       PRES   REMARKS
SPRINGFIELD    CLOUDY    28  17  63 NE5       30.14S WCI  23
JOPLIN         CLOUDY    30  20  66 E6        30.17R WCI  24

$$
MOZ032>034-039>042-045>050-055>058-069>072-071200-
...CENTRAL MISSOURI...

CITY           SKY/WX    TMP DP  RH WIND       PRES   REMARKS
COLUMBIA       NOT AVBL
JEFFERSON CITY CLOUDY    28  20  71 CALM      30.18F
ROLLA          CLOUDY    27  20  75 CALM      30.16S
SEDALIA        CLOUDY    32  15  49 N12       30.16F WCI  23
WARRENSBURG    CLOUDY    32  18  55 N9        30.17F WCI  24

$$
MOZ051-052-059>065-071200-
...EAST CENTRAL MISSOURI...

CITY           SKY/WX    TMP DP  RH WIND       PRES   REMARKS
ST LOUIS INTL  MOCLDY    32  16  51 W7        30.19R WCI  26

$$
MOZ072>076-082>087-097>100-106>115-071200-
...SOUTH CENTRAL AND SOUTHEAST MISSOURI...

CITY           SKY/WX    TMP DP  RH WIND       PRES   REMARKS
CAPE GIRARDEAU CLEAR     32  25  75 NW5       30.19R WCI  27
POPLAR BLUFF   PTCLDY    32  25  75 N6        30.19R WCI  26
WEST PLAINS    CLEAR     26  18  71 NE5       30.16F WCI  20

$$



USA.gov is the U.S. government's official web portal to all federal, state and local government web resources and services.